Location: Grisols
(45.0093°N, 3.1167°E)
Time: 08:13:19
(UTC+00:00)

YAOGAN 1 - Pass Details

Date: 21 October 2019
Orbit: 619 x 621 km, 98.0° (Epoch: 13 November)

Event Time Altitude Azimuth Distance (km) Brightness Sun altitude
Rises 17:38:43 0° 147° (SSE) 2,886 5.7 -8.7°
Reaches altitude 10° 17:40:59 10° 140° (SE) 1,984 4.8 -9.1°
Maximum altitude 17:45:02 41° 70° (ENE) 900 2.9 -9.9°
Drops below altitude 10° 17:49:07 10° 1° (N) 1,998 5.1 -10.6°
Sets 17:51:24 0° 354° (N) 2,908 6.0 -11.0°
